EDT,Max TemperatureF,Mean TemperatureF,Min TemperatureF,Max Dew PointF,MeanDew PointF,Min DewpointF,Max Humidity, Mean Humidity, Min Humidity, Max Sea Level PressureIn, Mean Sea Level PressureIn, Min Sea Level PressureIn, Max VisibilityMiles, Mean VisibilityMiles, Min VisibilityMiles, Max Wind SpeedMPH, Mean Wind SpeedMPH, Max Gust SpeedMPH,PrecipitationIn, CloudCover, Events, WindDirDegrees
2012-9-1,81,76,71,73,70,67,94,85,71,30.10,30.06,30.01,10,9,7,7,2,,0.04,3,Rain-Thunderstorm,84
2012-9-2,84,76,69,72,69,66,100,85,63,30.04,29.97,29.91,10,8,4,13,6,20,0.04,5,Rain,75
2012-9-3,90,79,69,74,70,66,94,83,50,29.93,29.90,29.87,10,8,1,14,6,20,1.14,4,Rain-Thunderstorm,64
2012-9-4,88,78,69,73,70,66,100,88,53,29.92,29.88,29.83,10,5,0,10,2,,0.00,5,Fog,345
2012-9-5,82,72,64,71,67,64,100,91,62,29.92,29.88,29.80,10,4,0,20,2,23,0.67,3,Fog-Rain-Thunderstorm,170
2012-9-6,86,75,64,69,64,60,100,83,43,29.93,29.89,29.84,10,5,0,10,2,,0.01,2,Fog,238
2012-9-7,82,70,59,68,63,57,96,79,49,29.92,29.84,29.72,10,9,4,12,2,,0.37,2,Rain-Thunderstorm,206
2012-9-8,72,63,55,66,55,48,97,79,47,29.88,29.76,29.67,10,8,4,17,9,23,0.41,6,Rain,327
2012-9-9,73,62,53,56,53,49,93,73,45,30.10,29.97,29.87,10,10,7,8,2,,0.00,5,,20
2012-9-10,75,60,48,52,47,40,93,66,30,30.25,30.19,30.11,10,10,10,6,1,,0.00,0,,358
2012-9-11,80,64,48,54,50,46,93,64,36,30.26,30.21,30.16,10,10,7,13,3,20,0.00,0,,193
2012-9-12,82,67,52,59,54,49,97,64,38,30.26,30.21,30.17,10,10,6,15,3,20,0.00,0,,202
2012-9-13,84,71,60,61,57,51,87,62,35,30.27,30.22,30.18,10,10,8,9,3,17,0.00,5,,219
2012-9-14,73,62,53,59,52,43,94,76,35,30.32,30.26,30.21,10,9,3,14,7,,0.18,5,Rain,355
2012-9-15,73,60,46,50,46,40,93,64,32,30.35,30.27,30.18,10,10,10,5,1,,0.00,0,,10
2012-9-16,77,60,46,51,47,43,93,66,31,30.18,30.11,30.04,10,10,10,10,2,,0.00,0,,199
2012-9-17,77,64,51,65,56,46,96,75,44,30.04,29.87,29.74,10,7,2,18,4,28,0.45,5,Rain,200
2012-9-18,66,57,48,64,53,33,94,77,42,30.02,29.74,29.62,10,8,4,17,7,29,0.00,6,Rain,292
2012-9-19,68,52,39,43,37,33,93,57,30,30.14,30.07,30.02,10,10,10,13,4,23,0.00,0,,199
2012-9-20,73,62,53,52,45,39,83,60,42,30.01,29.93,29.86,10,9,2,13,8,16,0.11,4,Rain-Thunderstorm,218
2012-9-21,72,59,46,50,44,38,93,69,29,29.97,29.91,29.79,10,10,6,15,3,23,0.27,2,Rain,207
2012-9-22,55,50,46,52,47,43,100,90,74,30.14,29.89,29.77,10,6,0,21,4,43,0.17,6,Fog-Rain-Thunderstorm,264
2012-9-23,60,49,39,45,40,37,97,75,49,30.26,30.19,30.13,10,9,1,16,3,22,0.00,3,,305
2012-9-24,66,50,35,39,35,30,96,60,27,30.26,30.15,30.00,10,10,6,15,4,22,0.00,0,,216
2012-9-25,68,57,48,61,50,36,94,74,51,30.00,29.95,29.91,10,9,7,15,7,20,0.00,6,,202
2012-9-26,72,67,60,63,61,58,94,84,73,30.11,29.98,29.90,10,8,4,10,6,17,0.00,7,,213
2012-9-27,69,60,51,57,49,46,90,73,54,30.19,30.16,30.13,10,10,6,13,7,20,0.00,4,,61
2012-9-28,68,57,48,52,48,46,93,77,47,30.17,30.14,30.09,10,10,7,9,2,,0.00,5,,92
2012-9-29,73,57,42,50,44,40,100,78,33,30.11,30.05,29.93,10,7,1,10,1,,0.00,1,,322
2012-9-30,66,55,44,49,44,40,93,71,38,29.97,29.93,29.90,10,10,7,10,4,21,0.00,1,,28